Flag for Netherlands Weather past 2 weeks in The Hague, Netherlands

61 °F

Mostly cloudy.

Feels Like: 61 °F
Forecast: 54 / 58 °F
Wind: 13 mph from South

Location: Rotterdam Zestienhoven Airport

Current Time: Oct 7, 2015 at 12:18:16 PM

Latest Report: Oct 7, 2015 at 11:55 AM

Visibility: N/A

Pressure: 29.74 "Hg

Humidity: 88%

Dew point: 57 °F

Location of The HagueLocation

Historic Weather in The Hague — Graph


The Hague temperature yesterday

Maximum temperature yesterday: 64 °F (at 1:55 PM)
Minimum temperature yesterday: 55 °F (at 3:25 AM)
Average temperature yesterday: 60 °F

Past Weeks' High & Low Weather Summary

High66 °F (Oct 3, 3:25 PM)100% (Sep 22, 7:55 PM)30.66 "Hg (Sep 22, 7:55 PM)
Low37 °F (Oct 3, 4:55 AM)52% (Oct 2, 2:55 PM)29.47 "Hg (Sep 22, 2:25 PM)
Average54 °F86%30.13 "Hg
* Reported Sep 22 10:25 AM — Oct 7 10:55 AM, The Hague, Weather by CustomWeather, © 2015

Note: Actual official high and low records may vary slightly from our data, if they occured in-between our weather recording intervals... More about our weather records


The Hague weather history for previous 24 hours

Time TempWeatherWind HumidityBarometerVisibility
10:55 AM
Wed, Oct 7
59 °FMostly cloudy.15 mph94%29.71 "HgN/A
10:25 AM59 °FLight rain. Partly sunny.14 mph88%29.71 "HgN/A
9:55 AM59 °FCloudy.15 mph88%29.71 "HgN/A
9:25 AM59 °FMore clouds than sun.13 mph88%29.68 "HgN/A
8:55 AM59 °FMore clouds than sun.13 mph88%29.68 "HgN/A
8:25 AM59 °FMostly cloudy.10 mph88%29.68 "HgN/A
7:55 AM59 °FMostly cloudy.13 mph88%29.65 "HgN/A
7:25 AM59 °FPassing clouds.13 mph88%29.65 "HgN/A
6:55 AM59 °FLight rain. Mostly cloudy.9 mph88%29.65 "HgN/A
6:25 AM59 °FOvercast.12 mph88%29.62 "HgN/A
5:55 AM59 °FPassing clouds.12 mph94%29.62 "HgN/A
5:25 AM59 °FPassing clouds.10 mph94%29.62 "HgN/A
4:55 AM59 °FClear.9 mph94%29.62 "HgN/A
4:25 AM59 °FPassing clouds.9 mph94%29.62 "HgN/A
3:55 AM59 °FClear.9 mph94%29.62 "HgN/A
3:25 AM59 °FClear.12 mph94%29.59 "HgN/A
2:55 AM59 °FClear.12 mph94%29.59 "HgN/A
2:25 AM59 °FPassing clouds.9 mph94%29.59 "HgN/A
1:55 AM59 °FClear.9 mph94%29.59 "HgN/A
1:25 AM61 °FClear.9 mph94%29.59 "HgN/A
12:55 AM61 °FClear.8 mph94%29.59 "HgN/A
12:25 AM61 °FClear.9 mph88%29.59 "HgN/A
11:55 PM
Tue, Oct 6
61 °FPassing clouds.10 mph94%29.56 "HgN/A
11:25 PM63 °FLight rain. Partly cloudy.8 mph88%29.56 "HgN/A
10:55 PM63 °FPassing clouds.8 mph88%29.56 "HgN/A
10:25 PM63 °FPassing clouds.10 mph88%29.56 "HgN/A
9:55 PM63 °FClear.8 mph88%29.56 "HgN/A
9:25 PM63 °FPassing clouds.10 mph88%29.56 "HgN/A
8:55 PM64 °FLight rain. Passing clouds.14 mph88%29.56 "HgN/A
8:25 PM64 °FClear.10 mph88%29.53 "HgN/A
7:55 PM63 °FClear.8 mph94%29.53 "HgN/A
7:25 PM64 °FMild.8 mph88%29.53 "HgN/A
6:55 PM64 °FScattered clouds.8 mph88%29.53 "HgN/A
6:25 PM64 °FBroken clouds.9 mph88%29.53 "HgN/A
5:55 PM64 °FMostly cloudy.9 mph88%29.50 "HgN/A
5:25 PM64 °FCloudy.10 mph88%29.50 "HgN/A
4:55 PM64 °FMostly cloudy.10 mph88%29.53 "HgN/A
4:25 PM64 °FMostly cloudy.9 mph88%29.53 "HgN/A
3:55 PM64 °FPartly sunny.8 mph83%29.53 "HgN/A
3:25 PM63 °FBroken clouds.8 mph88%29.53 "Hg6 mi
2:55 PM64 °FMostly cloudy.9 mph88%29.53 "Hg5 mi
2:25 PM64 °FBroken clouds.8 mph88%29.53 "Hg4 mi
1:55 PM64 °FMostly cloudy.8 mph88%29.56 "Hg4 mi
1:25 PM63 °FFog.9 mph88%29.56 "Hg3 mi
12:55 PM63 °FFog.9 mph88%29.56 "Hg2 mi
12:25 PM61 °FFog.7 mph100%29.56 "Hg2 mi
Weather by CustomWeather, © 2015

See weather overviewHow to use our weather pages